Probability
0 0 0 0 0 0 0 0 0 0 0 0 0 0 0 0 0 0 0 0 0 0 0 0 0 0 0 0 0 0 0 0 0 0 0 0 0 0 0 0 0 0 0
0 0 0 0 0 0 0 0 0 0 0 0 0 0 0 0 0 0 0 0 0 0 0 0 0 0 0 0 0 0 0 0 0 0 0 0 0 0 0 0 0 0 0
0 0 0 0 0 0 0 0 0 0 0 0 0 0 0 0 0 0 0 0 0 0 0 0 0 0 0 0 0 0 0 0 0 0 0 0 0 0 0 0 0 0 0
0 0 0 0 0 0 0 0 0 0 0 0 0 0 0 0 0 0 0 0 0 0 0 0 0 0 0 0 0 0 0 0 0 0 0 0 0 0 0 0 0 0 0
0 0 0 0 0 0 0 0 0 0 0 0 0 0 0 0 0 0 0 0 0 0 0 0 0 0 0 0 0 0 0 0 0 0 0 0 0 0 0 0 0 0 0
0 0 0 0 0 0 0 0 0 0 0 0 0 0 0 0 0 0 0 0 0 0 0 0 0 0 0 0 0 0 0 0 0 0 0 0 0 0 0 0 0 0 0
0 0 0 0 0 0 0 0 0 0 0 0 0 0 0 0 0 0 0 0 0 0 0 0 0 0 0 0 0 0 0 0 0 0 0 0 0 0 0 0 0 0 0
0 0 0 0 0 0 0 0 0 0 0 0 0 0 0 0 0 0 0 0 0 0 0 0 0 0 0 0 0 0 0 0 0 0 0 0 0 0 0 0 0 0 0
1 0 0 0 0 0 0 0 0 0 0 0 0 0 0 0 0 0 0 0 0 0 0 0 0 0 0 0 0 0 0 0 0 0 0 0 0 0 0 0 0 0 0
2 1 1 1 0 0 0 0 0 0 0 0 0 0 0 0 0 0 0 0 0 0 0 0 0 0 0 0 0 0 0 0 0 0 0 0 0 0 0 0 0 0 0
3 3 2 2 1 0 0 0 0 0 0 0 0 0 0 0 0 0 0 0 0 0 0 0 0 0 0 0 0 0 0 0 0 0 0 0 0 0 0 0 0 0 0
4 3 3 2 1 0 0 0 0 0 0 0 0 0 0 0 0 0 0 0 0 0 0 0 0 0 0 0 0 0 0 0 0 0 0 0 0 0 0 0 0 0 0
4 4 3 2 0 0 0 0 0 0 0 0 0 0 0 0 0 0 0 0 0 0 0 0 0 0 0 0 0 0 0 0 0 0 0 0 0 0 0 0 0 0 0
4 4 4 3 1 0 0 0 0 0 0 0 0 0 0 0 0 0 0 0 0 0 0 0 0 0 0 0 0 0 0 0 0 0 0 0 0 0 0 0 0 0 0
4 4 5 5 3 1 0 0 0 0 0 0 0 0 0 0 0 0 0 0 0 0 0 0 0 0 0 0 0 0 0 0 0 0 0 0 0 0 0 0 0 0 0
3 3 5 5 3 1 0 0 0 0 0 0 0 0 0 0 0 0 0 0 0 0 0 0 0 0 0 0 0 0 0 0 0 0 0 0 0 0 0 0 0 0 0
3 3 3 4 3 1 0 0 0 0 0 0 0 0 0 0 0 0 0 0 0 0 0 0 0 0 0 0 0 0 0 0 0 0 0 0 0 0 0 0 0 0 0
2 2 2 3 2 1 0 0 0 0 0 0 0 0 0 0 0 0 0 0 0 0 0 0 0 0 0 0 0 0 0 0 0 0 0 0 0 0 0 0 0 0 0
1 1 1 2 2 1 0 0 0 0 0 0 0 0 0 0 0 0 0 0 0 0 0 0 0 0 0 0 0 0 0 0 0 0 0 0 0 0 0 0 0 0 0
0 0 1 2 1 0 0 0 0 0 0 0 0 0 0 0 0 0 0 0 0 0 0 0 0 0 0 0 0 0 0 0 0 0 0 0 0 0 0 0 0 0 0
0 0 1 1 0 0 0 0 0 0 0 0 0 0 0 0 0 0 0 0 0 0 0 0 0 0 0 0 0 0 0 0 0 0 0 0 0 0 0 0 0 0 0
0 0 0 0 0 0 0 0 0 0 0 0 0 0 0 0 0 0 0 0 0 0 0 0 0 0 0 0 0 0 0 0 0 0 0 0 0 0 0 0 0 0 0
0 0 0 0 0 0 0 0 0 0 0 0 0 0 0 0 0 0 0 0 0 0 0 0 0 0 0 0 0 0 0 0 0 0 0 0 0 0 0 0 0 0 0
0 0 0 0 0 0 0 0 0 0 0 0 0 0 0 0 0 0 0 0 0 0 0 0 0 0 0 0 0 0 0 0 0 0 0 0 0 0 0 0 0 0 0
0 0 0 1 1 1 0 0 0 0 0 0 0 0 0 0 0 0 0 0 0 0 0 0 0 0 0 0 0 0 0 0 0 0 0 0 0 0 0 0 0 0 0
0 0 1 2 2 2 1 0 0 0 0 0 0 0 0 0 0 0 0 0 0 0 0 0 0 0 0 0 0 0 0 0 0 0 0 0 0 0 0 0 0 0 0
Wind_Speed
3 3 2 2 2 2 3 3 3 3 3 3 3 5 5 5 4 3 3 7 7 7 7 8 7 7 7 7 6 6 6 6 6 6 5 5 5 5 5 5 5 5 4
3 3 3 2 2 2 2 2 3 3 2 2 3 3 4 4 4 3 2 4 7 6 7 7 7 7 7 6 6 6 5 6 6 6 5 5 5 5 5 5 5 5 4
4 4 3 3 2 2 3 3 3 2 2 2 3 3 3 3 3 3 3 2 2 5 6 7 7 7 7 6 6 6 6 5 6 6 6 5 5 5 5 5 5 5 5
5 4 3 3 3 3 3 3 2 2 2 2 2 1 2 2 3 3 2 2 2 2 4 7 6 6 7 7 7 6 6 6 6 6 6 6 6 6 6 6 6 6 5
6 5 4 3 4 3 2 3 2 2 2 2 2 1 1 1 2 3 3 3 3 2 2 4 6 6 7 7 7 7 7 7 6 7 7 7 7 6 6 6 7 7 7
7 5 4 4 4 3 3 2 3 2 2 2 2 2 1 0 1 2 3 3 3 4 3 3 3 4 7 7 7 7 7 7 7 7 7 7 7 7 7 7 7 7 8
7 6 4 4 4 4 4 4 3 3 2 2 3 2 2 1 1 1 2 2 3 4 4 4 3 3 3 5 6 7 8 8 8 8 8 7 7 7 7 7 7 7 7
7 7 6 5 5 4 4 4 3 3 2 2 3 2 1 2 2 1 2 3 4 3 4 5 5 4 4 3 4 7 8 8 8 8 7 7 7 7 7 7 7 7 7
8 7 7 6 6 5 5 5 5 5 3 1 1 3 3 3 2 2 1 2 3 3 4 4 5 6 5 4 4 6 8 8 8 8 7 7 7 7 7 7 7 7 6
8 8 8 7 7 5 5 5 5 4 4 3 1 1 1 3 2 1 2 1 2 4 4 4 5 5 6 5 5 7 9 8 8 8 8 7 7 7 7 7 7 7 6
7 8 8 7 7 5 6 6 5 5 4 4 3 2 2 1 1 2 2 2 2 2 3 4 4 4 5 5 5 8 9 9 9 8 8 7 7 7 7 7 7 7 7
6 8 8 7 7 6 6 6 6 6 4 4 3 3 3 3 3 3 2 2 2 2 2 3 4 4 4 5 7 9 10 10 10 9 9 8 8 8 8 8 8 8 8
5 8 8 7 6 6 6 6 5 5 5 5 5 3 3 3 3 3 3 2 2 2 2 2 3 4 4 4 5 9 9 10 10 10 9 9 9 9 8 8 9 9 9
7 8 8 8 7 7 7 6 5 5 5 5 6 5 3 3 3 3 4 3 1 1 2 3 2 3 4 4 5 7 6 9 10 10 10 10 10 9 9 9 9 9 9
7 8 9 8 8 7 7 7 4 5 5 5 5 5 3 3 3 3 3 3 4 2 3 3 2 2 2 3 5 5 6 8 9 10 10 10 10 10 10 10 10 10 10
8 9 9 8 7 7 7 6 5 5 5 4 4 5 4 3 3 3 3 3 3 3 3 2 3 2 2 3 4 5 6 7 9 9 10 10 11 11 11 11 11 11 11
9 9 9 8 8 8 7 7 6 6 6 5 4 5 5 4 3 3 3 3 3 3 3 3 2 2 2 3 2 2 3 4 5 8 9 10 10 11 11 11 12 12 12
9 9 8 8 8 8 8 8 8 7 7 7 6 5 5 4 4 3 3 4 3 4 3 4 2 2 3 3 2 3 3 4 5 7 9 10 10 10 11 11 11 12 12
8 8 8 9 8 8 8 8 8 7 8 7 7 7 6 5 5 4 4 4 3 3 3 3 3 2 2 1 2 2 3 3 4 5 7 9 10 11 11 11 11 12 12
8 8 8 8 8 8 7 8 7 7 7 7 7 7 7 7 6 6 5 5 4 3 3 3 3 2 2 2 1 2 3 2 3 3 4 5 7 9 10 11 11 11 12
8 7 7 7 6 6 7 8 8 8 7 7 6 6 6 7 8 7 5 5 5 4 3 3 3 2 2 2 3 2 3 3 3 3 3 4 4 5 6 8 10 11 11
5 6 6 6 6 5 7 10 8 7 6 6 6 5 5 5 7 8 8 7 7 6 5 4 4 4 5 4 3 3 3 3 4 2 2 4 3 5 5 6 8 10 10
4 5 5 5 5 4 6 8 9 6 5 5 5 4 4 4 5 4 5 7 7 9 8 6 6 6 5 5 4 4 4 5 5 3 2 5 4 6 5 6 9 10 10
4 4 4 4 3 3 5 6 7 5 4 4 4 4 4 3 3 4 4 4 4 5 7 6 6 6 6 5 5 5 4 4 5 4 3 5 4 5 6 6 8 10 10
4 4 3 3 3 1 2 5 6 4 3 3 3 2 3 3 3 4 4 4 4 4 4 5 5 5 5 4 3 2 3 3 5 4 3 4 4 4 5 6 6 8 9
4 4 4 3 3 1 2 2 5 3 3 2 1 1 1 2 1 2 3 3 3 3 2 1 1 2 3 3 3 4 4 4 4 4 2 3 3 3 4 3 4 4 5
Wind_Direction
142 133 124 116 112 108 109 106 98 103 115 118 132 142 150 153 151 153 164 171 167 169 170 170 170 170 168 169 170 171 170 166 160 161 163 162 162 163 164 163 159 156 156
148 142 139 135 132 127 117 115 114 113 117 121 131 144 151 153 153 158 164 180 182 181 183 184 184 183 183 185 186 185 187 183 178 176 178 181 180 182 182 178 177 175 174
158 152 152 154 151 134 120 108 104 102 115 116 124 140 147 160 161 168 171 176 188 196 197 197 196 196 197 200 201 199 197 195 191 190 193 196 196 195 196 197 196 195 192
165 157 162 167 155 139 130 125 115 103 100 109 116 126 138 155 170 176 179 187 192 205 211 209 205 203 205 207 209 208 205 205 202 202 205 206 208 207 210 211 208 206 207
170 166 170 168 153 144 145 146 114 117 126 127 126 110 124 163 179 192 198 204 205 209 217 225 221 214 217 219 218 217 213 212 212 213 215 216 217 215 215 218 218 218 220
175 169 169 167 156 146 148 138 122 100 109 123 105 73 38 342 206 215 215 210 213 218 218 228 230 230 231 231 227 227 225 222 221 222 224 224 225 222 221 223 225 225 226
177 173 176 166 163 163 165 151 129 121 105 108 89 49 13 10 284 235 224 220 223 223 220 225 224 227 238 239 235 235 237 233 227 225 228 227 228 225 223 225 228 230 230
180 184 177 175 171 159 159 158 145 134 125 137 130 110 38 345 326 260 221 222 227 221 226 227 221 221 227 230 236 239 241 240 235 231 229 228 228 226 225 227 230 232 232
185 185 182 175 173 168 175 176 164 154 154 146 142 145 154 210 276 311 264 235 226 220 229 231 227 224 222 223 231 240 240 238 237 237 232 227 226 228 232 233 232 232 236
187 186 181 178 176 175 176 180 170 162 151 158 151 124 146 155 157 271 311 281 248 233 231 231 233 229 224 223 226 229 234 232 233 237 236 231 227 227 233 236 238 238 236
188 188 181 178 178 179 179 175 167 169 165 162 162 154 137 108 131 157 246 289 284 248 235 232 235 234 228 224 227 231 231 230 229 231 232 232 230 229 233 237 242 245 246
186 188 182 181 182 180 181 179 175 175 178 169 167 165 164 164 178 171 196 237 261 277 261 241 234 235 231 227 232 232 230 228 227 229 231 231 233 233 233 237 242 247 252
189 191 186 183 183 183 181 173 173 180 181 179 181 186 186 185 165 163 168 198 245 285 294 262 239 237 237 229 236 237 235 229 226 228 230 232 233 234 235 238 244 249 255
191 184 183 185 185 180 179 174 176 184 184 190 194 186 186 193 181 175 171 164 192 278 283 269 269 235 238 232 234 231 238 229 226 228 231 234 235 236 236 239 243 249 254
185 180 182 185 183 180 177 171 179 184 182 193 193 189 191 194 193 194 182 175 172 208 252 258 259 261 243 236 238 229 231 233 229 230 233 236 237 239 241 242 244 247 250
181 175 180 182 181 181 177 173 175 180 179 189 185 184 194 193 196 192 191 191 185 186 227 251 250 271 269 256 235 229 235 240 240 238 237 238 239 241 243 244 245 245 247
178 178 179 179 181 183 179 179 184 181 184 189 190 190 202 192 193 194 187 185 189 181 216 259 253 266 260 264 265 243 243 243 248 243 241 241 241 243 245 247 247 247 247
181 179 175 180 186 187 184 186 192 189 188 191 195 194 205 196 197 196 192 196 196 193 201 239 255 257 253 261 266 264 258 250 249 248 242 243 245 246 247 249 249 249 249
178 176 177 185 189 189 190 192 192 192 196 197 195 199 206 196 204 202 201 204 204 199 199 218 246 251 266 270 271 271 269 265 261 253 246 245 247 249 250 251 250 250 250
175 178 184 188 190 190 192 193 193 195 199 201 200 202 204 200 206 203 205 208 201 196 195 212 239 250 257 264 253 265 277 265 270 272 265 262 256 253 252 251 250 250 250
175 177 180 185 188 189 197 194 194 197 198 199 200 203 209 207 209 206 206 204 197 200 202 214 232 237 243 237 241 243 260 278 271 254 267 265 260 260 260 255 253 253 252
166 166 179 184 186 196 197 194 192 194 194 197 201 207 213 216 218 215 215 207 198 203 209 213 225 233 243 237 238 238 249 267 277 245 248 271 260 265 265 260 256 254 254
159 163 175 176 183 192 188 190 190 186 190 196 200 202 213 216 210 215 218 219 220 222 213 209 226 236 240 231 224 238 236 242 254 260 248 273 262 268 270 268 261 259 259
151 155 155 163 168 184 183 183 179 177 179 189 195 201 209 226 224 213 219 226 235 236 228 224 231 241 244 238 224 234 245 254 261 253 225 262 269 268 278 272 265 263 264
133 129 125 134 140 153 176 176 170 165 172 188 193 195 202 225 246 219 215 230 250 263 248 232 235 250 261 260 234 226 235 244 266 262 209 242 268 274 273 270 268 262 265
132 125 112 105 111 85 55 150 168 162 167 172 160 164 176 197 231 207 212 223 244 267 272 277 271 288 288 289 246 227 238 243 258 270 229 232 264 282 284 268 277 285 282